Time,TemperatureF,DewpointF,PressureIn,WindDirection,WindDirectionDegrees,WindSpeedMPH,WindSpeedGustMPH,Humidity,HourlyPrecipIn,Conditions,Clouds,dailyrainin,SolarRadiationWatts/m^2,SoftwareType,DateUTC
2013-07-19 07:00:00,52.0,51.0,-100.00,South,171,1.0,2.0,95,-99.99,,,0.00,161.429993,,2013-07-19 14:00:00,
2013-07-19 07:43:00,52.0,51.0,-100.00,South,171,1.0,2.0,95,-99.99,,,0.00,161.429993,,2013-07-19 14:43:00,
2013-07-19 07:53:00,52.0,51.0,-100.00,South,171,1.0,2.0,95,-99.99,,,0.00,161.429993,,2013-07-19 14:53:00,
2013-07-19 08:00:00,65.0,54.0,-100.00,SE,141,0.0,2.0,67,-99.99,,,0.00,317.160004,,2013-07-19 15:00:00,
2013-07-19 08:43:00,65.0,54.0,-100.00,SE,141,0.0,2.0,67,-99.99,,,0.00,317.160004,,2013-07-19 15:43:00,
2013-07-19 08:52:00,65.0,54.0,-100.00,SE,141,0.0,2.0,67,-99.99,,,0.00,317.160004,,2013-07-19 15:52:00,
2013-07-19 09:00:00,70.0,54.0,-100.00,NNE,26,3.0,7.0,56,-99.99,,,0.00,488.119995,,2013-07-19 16:00:00,
2013-07-19 09:43:00,70.0,54.0,-100.00,NNE,26,3.0,7.0,56,-99.99,,,0.00,488.119995,,2013-07-19 16:43:00,
2013-07-19 09:52:00,70.0,54.0,-100.00,NNE,26,3.0,7.0,56,-99.99,,,0.00,488.119995,,2013-07-19 16:52:00,
2013-07-19 10:00:00,74.0,53.0,-100.00,NNE,14,3.0,7.0,48,-99.99,,,0.00,648.739990,,2013-07-19 17:00:00,
2013-07-19 10:43:00,74.0,53.0,-100.00,NNE,14,3.0,7.0,48,-99.99,,,0.00,648.739990,,2013-07-19 17:43:00,
2013-07-19 10:52:00,74.0,53.0,-100.00,NNE,14,3.0,7.0,48,-99.99,,,0.00,648.739990,,2013-07-19 17:52:00,
2013-07-19 11:00:00,78.0,54.0,-100.00,NNE,18,3.0,7.0,44,-99.99,,,0.00,784.599976,,2013-07-19 18:00:00,
2013-07-19 11:42:00,78.0,54.0,-100.00,NNE,18,3.0,7.0,44,-99.99,,,0.00,784.599976,,2013-07-19 18:42:00,
2013-07-19 11:52:00,78.0,54.0,-100.00,NNE,18,3.0,7.0,44,-99.99,,,0.00,784.599976,,2013-07-19 18:52:00,
2013-07-19 12:00:00,82.0,55.0,-100.00,NE,35,4.0,10.0,38,-99.99,,,0.00,880.369995,,2013-07-19 19:00:00,
2013-07-19 12:43:00,82.0,55.0,-100.00,NE,35,4.0,10.0,38,-99.99,,,0.00,880.369995,,2013-07-19 19:43:00,
2013-07-19 12:52:00,82.0,55.0,-100.00,NE,35,4.0,10.0,38,-99.99,,,0.00,880.369995,,2013-07-19 19:52:00,
2013-07-19 13:00:00,85.0,54.0,-100.00,NNE,19,5.0,10.0,35,-99.99,,,0.00,925.809998,,2013-07-19 20:00:00,
2013-07-19 13:43:00,85.0,54.0,-100.00,NNE,19,5.0,10.0,35,-99.99,,,0.00,925.809998,,2013-07-19 20:43:00,
2013-07-19 13:52:00,85.0,54.0,-100.00,NNE,19,5.0,10.0,35,-99.99,,,0.00,925.809998,,2013-07-19 20:52:00,
2013-07-19 14:00:00,86.0,54.0,-100.00,NE,49,5.0,10.0,34,-99.99,,,0.00,917.210022,,2013-07-19 21:00:00,
2013-07-19 14:42:00,86.0,54.0,-100.00,NE,49,5.0,10.0,34,-99.99,,,0.00,917.210022,,2013-07-19 21:42:00,
2013-07-19 14:52:00,86.0,54.0,-100.00,NE,49,5.0,10.0,34,-99.99,,,0.00,917.210022,,2013-07-19 21:52:00,
2013-07-19 15:00:00,87.0,54.0,-100.00,NNE,23,6.0,11.0,32,-99.99,,,0.00,849.219971,,2013-07-19 22:00:00,
2013-07-19 15:42:00,87.0,54.0,-100.00,NNE,23,6.0,11.0,32,-99.99,,,0.00,849.219971,,2013-07-19 22:42:00,
2013-07-19 15:52:00,87.0,54.0,-100.00,NNE,23,6.0,11.0,32,-99.99,,,0.00,849.219971,,2013-07-19 22:52:00,
2013-07-19 16:00:00,85.0,55.0,-100.00,NE,54,7.0,13.0,36,-99.99,,,0.00,763.450012,,2013-07-19 23:00:00,
2013-07-19 16:43:00,85.0,55.0,-100.00,NE,54,7.0,13.0,36,-99.99,,,0.00,763.450012,,2013-07-19 23:43:00,
2013-07-19 16:52:00,85.0,55.0,-100.00,NE,54,7.0,13.0,36,-99.99,,,0.00,763.450012,,2013-07-19 23:52:00,
2013-07-19 17:00:00,87.0,55.0,-100.00,NNE,21,6.0,13.0,33,-99.99,,,0.00,624.219971,,2013-07-20 00:00:00,
2013-07-19 17:43:00,87.0,55.0,-100.00,NNE,21,6.0,13.0,33,-99.99,,,0.00,624.219971,,2013-07-20 00:43:00,
2013-07-19 17:52:00,87.0,55.0,-100.00,NNE,21,6.0,13.0,33,-99.99,,,0.00,624.219971,,2013-07-20 00:52:00,
2013-07-19 18:00:00,86.0,56.0,-100.00,North,7,8.0,14.0,35,-99.99,,,0.00,443.500000,,2013-07-20 01:00:00,
2013-07-19 18:52:00,86.0,56.0,-100.00,North,7,8.0,14.0,35,-99.99,,,0.00,443.500000,,2013-07-20 01:52:00,
2013-07-19 19:00:00,82.0,56.0,-100.00,North,11,7.0,13.0,41,-99.99,,,0.00,268.119995,,2013-07-20 02:00:00,
2013-07-19 19:43:00,82.0,56.0,-100.00,North,11,7.0,13.0,41,-99.99,,,0.00,268.119995,,2013-07-20 02:43:00,
2013-07-19 19:52:00,82.0,56.0,-100.00,North,11,7.0,13.0,41,-99.99,,,0.00,268.119995,,2013-07-20 02:52:00,
2013-07-19 20:00:00,79.0,58.0,-100.00,North,4,5.0,8.0,47,-99.99,,,0.00,112.040001,,2013-07-20 03:00:00,
2013-07-19 20:44:00,79.0,58.0,-100.00,North,4,5.0,8.0,47,-99.99,,,0.00,112.040001,,2013-07-20 03:44:00,
2013-07-19 20:53:00,79.0,58.0,-100.00,North,4,5.0,8.0,47,-99.99,,,0.00,112.040001,,2013-07-20 03:53:00,
2013-07-19 21:00:00,74.0,58.0,-100.00,NNE,12,3.0,6.0,57,-99.99,,,0.00,3.600000,,2013-07-20 04:00:00,
2013-07-19 21:44:00,74.0,58.0,-100.00,NNE,12,3.0,6.0,57,-99.99,,,0.00,3.600000,,2013-07-20 04:44:00,
2013-07-19 21:52:00,74.0,58.0,-100.00,NNE,12,3.0,6.0,57,-99.99,,,0.00,3.600000,,2013-07-20 04:52:00,